Regional Weather Roundup
Issued by NWS

Home | Current Version | Previous Version | Text Only | Print | Product List | Glossary On
Versions: 1 2 3 4 5 6 7 8 9 10 11 12 13 14 15 16 17 18 19 20 21 22 23 24 25 26 27 28 29 30 31 32 33 34 35 36 37 38 39 40 41 42 43 44 45 46 47 48 49 50
305
ASUS42 KKEY 241110
RWRKEY

FLORIDA REGIONAL WEATHER ROUNDUP FOR THE FLORIDA KEYS
NATIONAL WEATHER SERVICE KEY WEST FLORIDA
700 AM EDT MON JUL 24 2017

...SOUTH FLORIDA AND THE KEYS...

CITY           SKY/WX    TMP DP  RH WIND       PRES   REMARKS
FORT MYERS     CLEAR     76  76 100 SE3       30.04R
SW REGIONAL AP CLEAR     76  74  93 CALM      30.05R
NAPLES         CLEAR     78  76  93 E3        30.04R
MIAMI          LGT RAIN  82  72  71 SE6       30.05R
WEST KENDALL   LGT RAIN  78  71  79 SE6       30.05R
HOMESTEAD      PTCLDY    78  76  95 CALM      30.04R
MARATHON       LGT RAIN  84  79  85 SE6       30.03R HX  96
BOCA CHICA NAS PTCLDY    83  80  91 E10       30.02R HX  95
KEY WEST INTL  MOCLDY    85  78  80 SE13      30.03R HX  96

...INTERNATIONAL WEATHER...

CITY           SKY/WX    TMP DP  RH WIND       PRES   REMARKS
NASSAU BAHAMAS PTCLDY    84  75  74 CALM      30.06R HX  92
CANCUN MEXICO  MOCLDY    79  79 100 CALM      29.95S THUNDER
COZUMEL MEXICO CLOUDY    79  77  94 E6        29.93S

ADJACENT COASTAL WATERS...

STATION/POSITION TIME  SKY/WX   TEMP    WIND        PRES    WAVE
                                AIR SEA DIR/SP/G            HT/PER
                 (UTC)          (F)     (DEG/KT/KT) (MB)    (FT/S)
PULASKI SHOAL LI 1100            85     120/ 10/ 11 1017.0R
SAND KEY         1050            84                 1017.2R
LONG KEY         NOT AVBL
MOLASSES REEF    NOT AVBL
FOWEY ROCKS      1000            84 85  130/ 10/ 10 1017.5R
Buoy 42097       1030               87                N/A     1/ 3

$$




USA.gov is the U.S. government's official web portal to all federal, state and local government web resources and services.